{"data":{"norad_id":54847,"intl_designator":"2022-177AD","name":"STARLINK-5061","alt_names":[],"object_type":"PAYLOAD","status":"ACTIVE","operator":null,"country":"US","launch_date":"2022-12-28","launch_site_code":"AFETR","launch_vehicle":null,"mission":null,"orbit_class":"UNKNOWN","rcs_meters":null,"size_class":null,"mass_kg":null,"dimensions":null,"purposes":["comms"],"wikipedia_slug":null,"has_3d_model":false,"image_url":null,"decayed_at":null,"tle_current":{"epoch":"2026-05-25T01:58:45.618816Z","epoch_age_seconds":67227,"freshness":"FRESH","line1":"1 54847U 22177AD  26145.08247244 -.00000411  00000+0 -54080-5 0  9995","line2":"2 54847  43.0046  38.8616 0001197 262.2758  97.7958 15.27571356188902","mean_motion":15.27571356,"eccentricity":0.0001197,"inclination_deg":43.0046,"raan_deg":38.8616,"arg_perigee_deg":262.2758,"mean_anomaly_deg":97.7958,"bstar":-5.408e-6,"rev_number":18890,"period_min":94.267282136704,"perigee_km":482.25369233343,"apogee_km":483.8962664813,"semimajor_km":6861.2119794074,"source":"CELESTRAK","updated_at":"2026-05-25T13:38:17.725053Z"}}}